This is the latest recevied weather packets stored in our database for station/object OE7AOT-2. If no packets are shown the sender has not sent any weather packets the latest 10 day(s).
| Time | Temp. | Humidity | Pressure | Rain* | Wind** | Luminosity | Snow |
|---|---|---|---|---|---|---|---|
| 1777654126 | 20.56° C | 58% | 932.4 hPa | 0.25 mm | - | - | - |
| 1777654058 | 21.11° C | 57% | 932.3 hPa | 0.25 mm | - | - | - |
| 1777653990 | 22.22° C | 56% | 932.2 hPa | 0.25 mm | - | - | - |
| 1777653921 | 23.33° C | 55% | 932.2 hPa | 0 mm | - | - | - |
| 1777653853 | 24.44° C | 53% | 932.2 hPa | 0 mm | - | - | - |
| 1777653784 | 25.56° C | 52% | 932.1 hPa | 0 mm | - | - | - |
| 1777653716 | 27.22° C | 50% | 932 hPa | 0 mm | - | - | - |
| 1777653647 | 28.89° C | 48% | 932.1 hPa | 0 mm | - | - | - |
| 1777653579 | 31.11° C | 46% | 931.9 hPa | 0 mm | - | - | - |
| 1777653511 | 33.33° C | 44% | 931.9 hPa | 0 mm | - | - | - |
| 1777653442 | 34.44° C | 43% | 931.9 hPa | 0 mm | - | - | - |
| 1777653374 | 35° C | 42% | 931.9 hPa | 0 mm | - | - | - |
| 1777653305 | 35° C | 42% | 931.8 hPa | 0 mm | - | - | - |
| 1777653237 | 35° C | 42% | 931.8 hPa | 0 mm | - | - | - |
| 1777653168 | 35.56° C | 42% | 931.9 hPa | 0 mm | - | - | - |
| 1777653100 | 35.56° C | 41% | 931.9 hPa | 0 mm | - | - | - |
| 1777653032 | 35.56° C | 41% | 931.9 hPa | 0 mm | - | - | - |
| 1777652963 | 35.56° C | 41% | 931.8 hPa | 0 mm | - | - | - |
| 1777652895 | 36.11° C | 41% | 931.8 hPa | 0 mm | - | - | - |
| 1777652826 | 36.11° C | 41% | 931.8 hPa | 0 mm | - | - | - |
| 1777652758 | 36.11° C | 41% | 931.8 hPa | 0 mm | - | - | - |
| 1777652689 | 36.11° C | 41% | 931.9 hPa | 0 mm | - | - | - |
| 1777652621 | 36.67° C | 41% | 931.7 hPa | 0 mm | - | - | - |
| 1777652553 | 36.67° C | 40% | 931.8 hPa | 0 mm | - | - | - |
| 1777652484 | 36.67° C | 40% | 931.8 hPa | 0 mm | - | - | - |
* Rain latest hour (hover to see other rain measurements)
** Current wind speed in m/s (hover to see current wind gust speed)